Lubbock, TX

12:56 AM CST on November 17, 2019 (GMT -0600)
Lubbock International

Weather History for KLBB - September, 2019

Change the Weather History Date:

Tuesday, September 24, 2019

  Actual Average Record
Temperature  
Mean Temperature 78 °F 69 °F  
Max Temperature 88 °F 82 °F 97 °F (1953)
Min Temperature 68 °F 56 °F 38 °F (1989)
Degree Days  
Heating Degree Days 0 1  
Month to date heating degree days 0 11  
Since 1 July heating degree days 0 11  
Cooling Degree Days 13 5  
Month to date cooling degree days 305 196  
Year to date cooling degree days 2023 1722  
Growing Degree Days 28 (Base 50)    
Moisture  
Dew Point 66 °F    
Average Humidity 73    
Maximum Humidity 93    
Minimum Humidity 46    
Precipitation  
Precipitation 0.00 in 0.09 in 2.72 in (2014)
Month to date precipitation 4.67 2.06  
Year to date precipitation 20.26 15.13  
Snow  
Snow 0.00 in 0.00 in - ()
Month to date snowfall 0.0 0.0  
Since 1 July snowfall 0.0 0.0  
Since 1 September snowfall 0.0 0.0  
Snow Depth 0.00 in    
Sea Level Pressure  
Sea Level Pressure 29.86 in    
Wind  
Wind Speed 10 mph ()    
Max Wind Speed 18 mph    
Max Gust Speed 22 mph    
Visibility 10.0 miles    
Events Thunderstorm    
T = Trace of Precipitation, MM = Missing Value Source: Averaged Metar Reports

Daily Weather History Graph

Daily Weather History Graph

Search for Another Location

Airport or City:

Astronomy

Sep. 24, 2019 Rise Set
Actual Time 7:36 AM CDT 7:41 PM CDT
Civil Twilight 7:11 AM CDT 8:06 PM CDT
Nautical Twilight 6:42 AM CDT 8:35 PM CDT
Astronomical Twilight 6:13 AM CDT 9:04 PM CDT
Moon 2:41 AM CDT (9/24) 5:12 PM CDT (9/24)
Length of Visible Light 12h 54m
Length of Day
12h 04m
Waning Crescent, 23% of the Moon is Illuminated
Sep 24
Waning Crescent
Sep 28
New
Oct 5
First Quarter
Oct 13
Full
Oct 21
Last Quarter

Hourly Weather History & Observations

Time (CDT) Temp. Heat Index Dew Point Humidity Pressure Visibility Wind Dir Wind Speed Gust Speed Precip Events Conditions
12:53 AM 69.1 °F - 66.9 °F 93% 29.91 in 10.0 mi SE 13.8 mph - N/A   Overcast
1:53 AM 69.1 °F - 66.9 °F 93% 29.89 in 10.0 mi SE 13.8 mph - N/A   Overcast
2:53 AM 69.1 °F - 66.9 °F 93% 29.89 in 10.0 mi SSE 13.8 mph - N/A   Overcast
3:53 AM 69.1 °F - 66.9 °F 93% 29.90 in 10.0 mi South 12.7 mph - N/A   Overcast
4:46 AM 69.1 °F - 66.0 °F 90% 30.01 in 10.0 mi SSE 16.1 mph - N/A   Overcast
4:53 AM 69.1 °F - 66.9 °F 93% 29.87 in 10.0 mi South 11.5 mph - N/A   Overcast
5:53 AM 69.1 °F - 66.9 °F 93% 29.88 in 10.0 mi South 9.2 mph - N/A   Overcast
6:53 AM 69.1 °F - 66.0 °F 90% 29.87 in 10.0 mi SSE 10.4 mph - N/A   Mostly Cloudy
7:53 AM 69.1 °F - 66.0 °F 90% 29.88 in 10.0 mi South 10.4 mph - N/A   Mostly Cloudy
8:53 AM 69.1 °F - 66.0 °F 90% 29.90 in 9.0 mi South 5.8 mph - N/A   Mostly Cloudy
9:02 AM 70.0 °F - 66.0 °F 87% 30.01 in 10.0 mi SSE 11.5 mph - N/A   Scattered Clouds
9:18 AM 71.1 °F - 66.0 °F 84% 30.03 in 10.0 mi SSW 3.5 mph - N/A   Mostly Cloudy
9:30 AM 70.0 °F - 66.0 °F 87% 30.03 in 10.0 mi South 5.8 mph - N/A   Scattered Clouds
9:53 AM 72.0 °F - 66.0 °F 81% 29.90 in 10.0 mi South 8.1 mph - N/A   Partly Cloudy
10:53 AM 75.9 °F - 64.9 °F 69% 29.88 in 10.0 mi SSW 12.7 mph - N/A   Partly Cloudy
11:53 AM 79.0 °F - 66.0 °F 64% 29.87 in 10.0 mi South 11.5 mph 20.7 mph N/A   Partly Cloudy
12:53 PM 81.0 °F 83.0 °F 66.0 °F 60% 29.84 in 10.0 mi South 9.2 mph - N/A   Scattered Clouds
1:53 PM 84.0 °F 86.5 °F 66.9 °F 56% 29.82 in 10.0 mi South 10.4 mph - N/A   Scattered Clouds
2:53 PM 86.0 °F 88.2 °F 66.0 °F 51% 29.79 in 10.0 mi SSW 10.4 mph - N/A   Scattered Clouds
3:53 PM 87.1 °F 88.9 °F 64.9 °F 48% 29.77 in 10.0 mi Calm Calm - N/A   Scattered Clouds
4:53 PM 87.1 °F 89.2 °F 66.0 °F 49% 29.74 in 10.0 mi South 10.4 mph - N/A   Mostly Cloudy
5:53 PM 88.0 °F 90.3 °F 66.0 °F 48% 29.72 in 10.0 mi SSE 13.8 mph - N/A   Mostly Cloudy
6:53 PM 84.0 °F 86.3 °F 66.0 °F 55% 29.73 in 10.0 mi South 10.4 mph - N/A   Mostly Cloudy
7:24 PM 82.9 °F 85.0 °F 66.0 °F 56% 29.89 in 10.0 mi South 9.2 mph - N/A Thunderstorm Thunderstorm
7:53 PM 82.0 °F 84.9 °F 68.0 °F 62% 29.75 in 10.0 mi SSE 8.1 mph - N/A   Mostly Cloudy
8:53 PM 79.0 °F - 66.9 °F 66% 29.77 in 10.0 mi South 9.2 mph - N/A   Scattered Clouds
9:53 PM 78.1 °F - 66.0 °F 66% 29.78 in 10.0 mi South 8.1 mph - N/A   Scattered Clouds
10:53 PM 78.1 °F - 64.9 °F 64% 29.78 in 10.0 mi South 12.7 mph - N/A   Mostly Cloudy
11:53 PM 78.1 °F - 63.0 °F 60% 29.77 in 10.0 mi SSW 15.0 mph - N/A   Mostly Cloudy